Location: Pasarilla del Rebollar
(40.6790°N, 5.0062°W)
Time: 12:10:53
(UTC+00:00)

Cosmos 2333 - Pass Details

Date: 22 April 2026
Orbit: 829 x 864 km, 70.9° (Epoch: 16 May)

Event Time Altitude Azimuth Distance (km) Brightness Sun altitude
Rises 03:25:17 0° 334° (NNW) 3,406 7.5 -21.8°
Reaches altitude 10° 03:27:44 10° 333° (NNW) 2,473 6.8 -21.4°
Maximum altitude 03:33:24 73° 249° (WSW) 889 4.1 -20.6°
Drops below altitude 10° 03:39:04 10° 166° (SSE) 2,480 6.4 -19.7°
Sets 03:41:32 0° 164° (SSE) 3,416 7.2 -19.4°
